OCN3ME LGIR-EDDF

Flight info

Callsign OCN3ME
Flight time 2h 58m
Altitude 36000
Route EPALO UM749 DIRMI UL613 XANIS DCT DIMIS DCT PETAK DCT GLOMY DCT ELTIB DCT TUPUS DCT GORPA DCT SIMBA DCT AKINI T161 DEBHI DEBHI1B
Aircraft A320/M-SDE2E3FGIJ1LORWXYZ/HB1

Departure

Time 2026-05-06 16:53
Airport Heraklion International Nikos Kazantzakis Airport (LGIR)

Arrival

Time 2026-05-06 19:51
Airport Frankfurt Main Airport (EDDF)
Time Latitude Longitude Altitude Speed Heading
2026-05-06 16:22 35.33898 25.17052 93 ft 0 kts 315°
2026-05-06 16:47 35.33908 25.17042 90 ft 7 kts 327°
2026-05-06 16:47 35.33940 25.17067 90 ft 8 kts 68°
2026-05-06 16:48 35.33936 25.17163 90 ft 12 kts 95°
2026-05-06 16:48 35.33929 25.17270 91 ft 13 kts 95°
2026-05-06 16:48 35.33920 25.17394 91 ft 16 kts 95°
2026-05-06 16:48 35.33910 25.17540 92 ft 18 kts 94°
2026-05-06 16:49 35.33899 25.17699 92 ft 19 kts 95°
2026-05-06 16:49 35.33887 25.17862 92 ft 20 kts 95°
2026-05-06 16:49 35.33875 25.18036 93 ft 21 kts 95°
2026-05-06 16:49 35.33862 25.18213 93 ft 21 kts 95°
2026-05-06 16:50 35.33850 25.18398 91 ft 23 kts 95°
2026-05-06 16:50 35.33837 25.18595 90 ft 24 kts 94°
2026-05-06 16:50 35.33823 25.18800 91 ft 24 kts 95°
2026-05-06 16:50 35.33833 25.18953 91 ft 16 kts 55°
2026-05-06 16:51 35.33905 25.19003 91 ft 12 kts 304°
2026-05-06 16:51 35.33911 25.18956 87 ft 0 kts 274°
2026-05-06 16:52 35.33922 25.18804 89 ft 51 kts 275°
2026-05-06 16:52 35.33970 25.18081 93 ft 116 kts 275°
2026-05-06 16:52 35.34056 25.16873 100 ft 166 kts 276°
2026-05-06 16:52 35.34160 25.15398 512 ft 182 kts 276°
2026-05-06 16:53 35.34411 25.13803 952 ft 200 kts 294°
2026-05-06 16:53 35.35243 25.12371 1349 ft 222 kts 320°
2026-05-06 16:53 35.36656 25.11417 1842 ft 241 kts 346°
2026-05-06 16:53 35.38341 25.11072 2523 ft 248 kts 357°
2026-05-06 16:54 35.40093 25.11020 3275 ft 255 kts 359°
2026-05-06 16:54 35.41873 25.10834 4113 ft 258 kts 351°
2026-05-06 16:54 35.43620 25.10422 4949 ft 260 kts 346°
2026-05-06 16:54 35.45388 25.09900 5776 ft 262 kts 345°
2026-05-06 16:55 35.47160 25.09325 6593 ft 264 kts 344°
2026-05-06 16:55 35.48948 25.08724 7377 ft 268 kts 344°
2026-05-06 16:55 35.50752 25.08110 8157 ft 270 kts 344°
2026-05-06 16:55 35.52575 25.07488 8901 ft 273 kts 344°
2026-05-06 16:56 35.54422 25.06857 9620 ft 277 kts 344°
2026-05-06 16:56 35.56294 25.06218 10319 ft 283 kts 344°
2026-05-06 16:56 35.58249 25.05552 10506 ft 306 kts 344°
2026-05-06 16:56 35.60378 25.04827 10780 ft 324 kts 344°
2026-05-06 16:57 35.62578 25.04081 11369 ft 330 kts 344°
2026-05-06 16:57 35.64810 25.03326 12023 ft 334 kts 344°
2026-05-06 16:57 35.67059 25.02565 12693 ft 337 kts 343°
2026-05-06 16:57 35.69329 25.01795 13341 ft 339 kts 343°
2026-05-06 16:58 35.71585 25.01009 13974 ft 341 kts 340°
2026-05-06 16:58 35.73814 24.99975 14578 ft 343 kts 338°
2026-05-06 16:58 35.76053 24.98916 15192 ft 345 kts 338°
2026-05-06 16:58 35.78302 24.97855 15800 ft 347 kts 338°
2026-05-06 16:59 35.80569 24.96790 16387 ft 350 kts 338°
2026-05-06 16:59 35.82846 24.95719 16942 ft 352 kts 338°
2026-05-06 16:59 35.85141 24.94641 17511 ft 354 kts 338°
2026-05-06 16:59 35.87447 24.93556 18040 ft 356 kts 337°
2026-05-06 17:00 35.89768 24.92464 18568 ft 358 kts 337°
2026-05-06 17:00 35.92099 24.91367 19065 ft 360 kts 337°
2026-05-06 17:00 35.94449 24.90256 19563 ft 362 kts 337°
2026-05-06 17:00 35.96813 24.89133 20042 ft 365 kts 337°
2026-05-06 17:01 35.99192 24.88004 20507 ft 367 kts 338°
2026-05-06 17:01 36.01585 24.86871 20972 ft 369 kts 338°
2026-05-06 17:01 36.03986 24.85728 21431 ft 370 kts 336°
2026-05-06 17:01 36.06267 24.84242 21857 ft 372 kts 326°
2026-05-06 17:02 36.08333 24.82295 22279 ft 374 kts 321°
2026-05-06 17:02 36.10339 24.80302 22694 ft 375 kts 321°
2026-05-06 17:02 36.12382 24.78278 23082 ft 378 kts 321°
2026-05-06 17:02 36.14441 24.76238 23481 ft 379 kts 321°
2026-05-06 17:03 36.16509 24.74189 23855 ft 382 kts 321°
2026-05-06 17:03 36.18584 24.72132 24235 ft 383 kts 321°
2026-05-06 17:03 36.20672 24.70055 24603 ft 386 kts 321°
2026-05-06 17:03 36.22768 24.67968 24965 ft 387 kts 321°
2026-05-06 17:04 36.24871 24.65873 25313 ft 389 kts 321°
2026-05-06 17:04 36.26989 24.63758 25647 ft 391 kts 321°
2026-05-06 17:04 36.29111 24.61638 25974 ft 393 kts 321°
2026-05-06 17:04 36.31247 24.59506 26296 ft 395 kts 321°
2026-05-06 17:05 36.33397 24.57363 26598 ft 397 kts 321°
2026-05-06 17:05 36.35558 24.55208 26896 ft 399 kts 321°
2026-05-06 17:05 36.37729 24.53040 27187 ft 401 kts 320°
2026-05-06 17:05 36.39912 24.50859 27481 ft 403 kts 320°
2026-05-06 17:06 36.42105 24.48666 27792 ft 405 kts 320°
2026-05-06 17:06 36.44273 24.46490 28086 ft 406 kts 320°
2026-05-06 17:06 36.46473 24.44277 28380 ft 408 kts 320°
2026-05-06 17:06 36.48687 24.42051 28661 ft 410 kts 320°
2026-05-06 17:07 36.50910 24.39822 28929 ft 411 kts 320°
2026-05-06 17:07 36.53146 24.37580 29184 ft 413 kts 320°
2026-05-06 17:07 36.55384 24.35338 29431 ft 414 kts 320°
2026-05-06 17:07 36.57636 24.33075 29684 ft 415 kts 320°
2026-05-06 17:08 36.59888 24.30807 29920 ft 417 kts 320°
2026-05-06 17:08 36.62147 24.28528 30147 ft 418 kts 320°
2026-05-06 17:08 36.64411 24.26242 30382 ft 420 kts 320°
2026-05-06 17:08 36.66650 24.23980 30588 ft 421 kts 320°
2026-05-06 17:09 36.68921 24.21686 30912 ft 419 kts 320°
2026-05-06 17:09 36.71191 24.19392 31219 ft 419 kts 320°
2026-05-06 17:09 36.73454 24.17105 31543 ft 417 kts 320°
2026-05-06 17:09 36.75706 24.14826 31856 ft 416 kts 320°
2026-05-06 17:10 36.77955 24.12546 32156 ft 415 kts 320°
2026-05-06 17:10 36.80188 24.10280 32460 ft 413 kts 320°
2026-05-06 17:10 36.82420 24.08014 32750 ft 412 kts 319°
2026-05-06 17:10 36.84643 24.05755 33024 ft 411 kts 320°
2026-05-06 17:11 36.86859 24.03502 33309 ft 410 kts 320°
2026-05-06 17:11 36.89070 24.01255 33591 ft 409 kts 320°
2026-05-06 17:11 36.91252 23.99039 33853 ft 408 kts 320°
2026-05-06 17:11 36.93490 23.96761 34051 ft 410 kts 319°
2026-05-06 17:12 36.95670 23.94539 34257 ft 410 kts 319°
2026-05-06 17:12 36.97887 23.92281 34496 ft 410 kts 319°
2026-05-06 17:12 37.00094 23.90027 34731 ft 409 kts 319°
2026-05-06 17:12 37.02302 23.87768 34947 ft 409 kts 319°
2026-05-06 17:13 37.04513 23.85510 35134 ft 409 kts 319°
2026-05-06 17:13 37.06721 23.83256 35337 ft 409 kts 319°
2026-05-06 17:13 37.08928 23.81001 35540 ft 409 kts 319°
2026-05-06 17:13 37.11134 23.78742 35739 ft 408 kts 319°
2026-05-06 17:14 37.13332 23.76490 35939 ft 408 kts 319°
2026-05-06 17:14 37.15527 23.74236 36063 ft 408 kts 319°
2026-05-06 17:14 37.17692 23.72010 36091 ft 407 kts 319°
2026-05-06 17:15 37.22067 23.67518 36092 ft 406 kts 319°
2026-05-06 17:15 37.26420 23.63048 36083 ft 405 kts 319°
2026-05-06 17:16 37.30785 23.58555 36081 ft 405 kts 319°
2026-05-06 17:16 37.35149 23.54045 36084 ft 406 kts 319°
2026-05-06 17:17 37.39512 23.49529 36084 ft 406 kts 319°
2026-05-06 17:17 37.43876 23.45005 36082 ft 406 kts 319°
2026-05-06 17:18 37.48236 23.40488 36083 ft 406 kts 319°
2026-05-06 17:18 37.52593 23.35967 36081 ft 406 kts 319°
2026-05-06 17:19 37.56218 23.32193 36077 ft 406 kts 319°
2026-05-06 17:19 37.61286 23.26908 36071 ft 406 kts 319°
2026-05-06 17:20 37.64915 23.23122 36072 ft 406 kts 319°
2026-05-06 17:20 37.69277 23.18563 36067 ft 406 kts 319°
2026-05-06 17:21 37.73638 23.13998 36062 ft 407 kts 319°
2026-05-06 17:21 37.77967 23.09461 36063 ft 407 kts 319°
2026-05-06 17:22 37.82323 23.04885 36058 ft 407 kts 319°
2026-05-06 17:22 37.86685 23.00293 36058 ft 407 kts 319°
2026-05-06 17:23 37.91052 22.95701 36058 ft 408 kts 319°
2026-05-06 17:23 37.95377 22.91044 36049 ft 407 kts 317°
2026-05-06 17:24 37.99526 22.86206 36049 ft 408 kts 315°
2026-05-06 17:24 38.03680 22.81273 36056 ft 408 kts 315°
2026-05-06 17:25 38.07829 22.76395 36059 ft 408 kts 316°
2026-05-06 17:25 38.12020 22.71510 36063 ft 408 kts 316°
2026-05-06 17:26 38.16210 22.66654 36066 ft 408 kts 316°
2026-05-06 17:26 38.20406 22.61778 36067 ft 408 kts 316°
2026-05-06 17:27 38.24603 22.56879 36061 ft 409 kts 316°
2026-05-06 17:27 38.28767 22.52004 36059 ft 409 kts 316°
2026-05-06 17:28 38.32972 22.47095 36061 ft 410 kts 316°
2026-05-06 17:28 38.37175 22.42183 36057 ft 410 kts 316°
2026-05-06 17:29 38.41351 22.37287 36053 ft 410 kts 316°
2026-05-06 17:29 38.45553 22.32346 36059 ft 410 kts 316°
2026-05-06 17:30 38.49764 22.27391 36059 ft 410 kts 316°
2026-05-06 17:30 38.53939 22.22470 36057 ft 410 kts 315°
2026-05-06 17:31 38.58160 22.17517 36062 ft 411 kts 317°
2026-05-06 17:31 38.62559 22.12881 36067 ft 411 kts 320°
2026-05-06 17:32 38.67073 22.08369 36068 ft 411 kts 320°
2026-05-06 17:32 38.71528 22.03843 36070 ft 411 kts 319°
2026-05-06 17:33 38.75975 21.99226 36071 ft 411 kts 319°
2026-05-06 17:33 38.80411 21.94594 36056 ft 411 kts 319°
2026-05-06 17:34 38.84833 21.89981 36055 ft 412 kts 319°
2026-05-06 17:34 38.89294 21.85332 36054 ft 412 kts 319°
2026-05-06 17:35 38.93757 21.80678 36055 ft 412 kts 319°
2026-05-06 17:35 38.98210 21.76029 36068 ft 412 kts 319°
2026-05-06 17:36 39.04851 21.69071 36067 ft 412 kts 319°
2026-05-06 17:36 39.09298 21.64389 36065 ft 413 kts 319°
2026-05-06 17:37 39.13742 21.59710 36066 ft 413 kts 319°
2026-05-06 17:37 39.18191 21.55025 36084 ft 412 kts 319°
2026-05-06 17:38 39.22626 21.50351 36092 ft 411 kts 318°
2026-05-06 17:38 39.27056 21.45660 36091 ft 411 kts 318°
2026-05-06 17:39 39.31450 21.41001 36088 ft 411 kts 318°
2026-05-06 17:39 39.35869 21.36328 36091 ft 411 kts 318°
2026-05-06 17:40 39.40295 21.31629 36092 ft 411 kts 318°
2026-05-06 17:40 39.44716 21.26919 36097 ft 411 kts 318°
2026-05-06 17:41 39.49109 21.22237 36097 ft 411 kts 318°
2026-05-06 17:41 39.53534 21.17515 36099 ft 412 kts 318°
2026-05-06 17:42 39.57957 21.12787 36099 ft 412 kts 318°
2026-05-06 17:42 39.62361 21.08065 36102 ft 412 kts 318°
2026-05-06 17:43 39.66787 21.03302 36106 ft 413 kts 318°
2026-05-06 17:43 39.71219 20.98537 36105 ft 413 kts 318°
2026-05-06 17:44 39.75649 20.93767 36107 ft 413 kts 318°
2026-05-06 17:44 39.80085 20.88981 36111 ft 413 kts 317°
2026-05-06 17:45 39.84516 20.84192 36109 ft 414 kts 317°
2026-05-06 17:45 39.88916 20.79423 36108 ft 414 kts 317°
2026-05-06 17:46 39.93346 20.74619 36108 ft 415 kts 317°
2026-05-06 17:46 39.97788 20.69801 36104 ft 415 kts 317°
2026-05-06 17:47 40.02224 20.64969 36107 ft 415 kts 317°
2026-05-06 17:47 40.06675 20.60147 36111 ft 416 kts 320°
2026-05-06 17:48 40.11635 20.56254 36108 ft 419 kts 327°
2026-05-06 17:48 40.16735 20.52535 36105 ft 419 kts 327°
2026-05-06 17:49 40.21835 20.48802 36106 ft 420 kts 327°
2026-05-06 17:49 40.26903 20.45087 36106 ft 420 kts 327°
2026-05-06 17:50 40.32002 20.41337 36104 ft 420 kts 327°
2026-05-06 17:50 40.37105 20.37570 36104 ft 420 kts 327°
2026-05-06 17:51 40.42171 20.33833 36099 ft 420 kts 327°
2026-05-06 17:51 40.47269 20.30058 36100 ft 420 kts 327°
2026-05-06 17:52 40.52355 20.26275 36102 ft 420 kts 327°
2026-05-06 17:52 40.57454 20.22501 36100 ft 420 kts 327°
2026-05-06 17:53 40.62512 20.18747 36099 ft 420 kts 327°
2026-05-06 17:53 40.67598 20.14968 36103 ft 419 kts 327°
2026-05-06 17:54 40.72683 20.11173 36099 ft 419 kts 327°
2026-05-06 17:54 40.77747 20.07367 36100 ft 419 kts 327°
2026-05-06 17:55 40.82804 20.03591 36098 ft 419 kts 327°
2026-05-06 17:55 40.87875 19.99791 36098 ft 419 kts 327°
2026-05-06 17:56 40.92953 19.95979 36088 ft 419 kts 327°
2026-05-06 17:56 40.97994 19.92183 36082 ft 420 kts 327°
2026-05-06 17:57 41.03076 19.88344 36079 ft 420 kts 327°
2026-05-06 17:57 41.08164 19.84502 36083 ft 421 kts 327°
2026-05-06 17:58 41.13253 19.80643 36085 ft 421 kts 327°
2026-05-06 17:58 41.18343 19.76788 36085 ft 421 kts 327°
2026-05-06 17:59 41.23419 19.72946 36089 ft 422 kts 327°
2026-05-06 17:59 41.28520 19.69064 36091 ft 422 kts 327°
2026-05-06 18:00 41.33609 19.65183 36089 ft 421 kts 327°
2026-05-06 18:00 41.38696 19.61292 36091 ft 421 kts 327°
2026-05-06 18:01 41.43781 19.57398 36091 ft 421 kts 327°
2026-05-06 18:01 41.48830 19.53533 36092 ft 420 kts 326°
2026-05-06 18:02 41.53904 19.49632 36091 ft 420 kts 326°
2026-05-06 18:02 41.58973 19.45721 36089 ft 420 kts 326°
2026-05-06 18:03 41.64032 19.41821 36081 ft 420 kts 326°
2026-05-06 18:03 41.69105 19.37912 36081 ft 420 kts 326°
2026-05-06 18:04 41.74129 19.34026 36080 ft 420 kts 326°
2026-05-06 18:04 41.79169 19.30059 36079 ft 419 kts 324°
2026-05-06 18:05 41.84033 19.25764 36078 ft 418 kts 322°
2026-05-06 18:05 41.88793 19.21364 36078 ft 418 kts 322°
2026-05-06 18:06 41.93618 19.16963 36079 ft 419 kts 322°
2026-05-06 18:06 41.97648 19.13339 36080 ft 419 kts 322°
2026-05-06 18:07 42.02498 19.08987 36082 ft 419 kts 322°
2026-05-06 18:07 42.07340 19.04629 36083 ft 419 kts 322°
2026-05-06 18:08 42.12184 19.00251 36079 ft 419 kts 322°
2026-05-06 18:08 42.17028 18.95863 36079 ft 419 kts 322°
2026-05-06 18:09 42.21849 18.91498 36080 ft 420 kts 322°
2026-05-06 18:09 42.26701 18.87086 36082 ft 419 kts 322°
2026-05-06 18:10 42.31542 18.82675 36085 ft 419 kts 322°
2026-05-06 18:10 42.36373 18.78267 36106 ft 417 kts 322°
2026-05-06 18:11 42.41139 18.73907 36115 ft 414 kts 321°
2026-05-06 18:11 42.45911 18.69546 36111 ft 412 kts 321°
2026-05-06 18:12 42.50651 18.65203 36105 ft 410 kts 321°
2026-05-06 18:12 42.55339 18.60888 36101 ft 409 kts 321°
2026-05-06 18:13 42.60052 18.56539 36099 ft 409 kts 321°
2026-05-06 18:13 42.64763 18.52189 36097 ft 409 kts 321°
2026-05-06 18:14 42.69473 18.47826 36093 ft 409 kts 321°
2026-05-06 18:14 42.74184 18.43466 36091 ft 409 kts 321°
2026-05-06 18:15 42.78860 18.39135 36083 ft 409 kts 321°
2026-05-06 18:15 42.83575 18.34758 36078 ft 410 kts 321°
2026-05-06 18:16 42.88297 18.30363 36078 ft 410 kts 321°
2026-05-06 18:16 42.92982 18.25984 36073 ft 410 kts 321°
2026-05-06 18:17 42.97703 18.21568 36069 ft 410 kts 321°
2026-05-06 18:17 43.02414 18.17156 36065 ft 410 kts 321°
2026-05-06 18:18 43.07130 18.12736 36065 ft 411 kts 321°
2026-05-06 18:18 43.11840 18.08311 36051 ft 411 kts 321°
2026-05-06 18:19 43.16549 18.03867 36053 ft 411 kts 321°
2026-05-06 18:19 43.21239 17.99439 36048 ft 412 kts 321°
2026-05-06 18:20 43.25963 17.94975 36050 ft 413 kts 320°
2026-05-06 18:20 43.30699 17.90491 36036 ft 413 kts 320°
2026-05-06 18:21 43.35402 17.86026 36035 ft 413 kts 320°
2026-05-06 18:21 43.40137 17.81513 36036 ft 414 kts 320°
2026-05-06 18:22 43.44880 17.76991 36036 ft 414 kts 320°
2026-05-06 18:22 43.49628 17.72469 36037 ft 415 kts 320°
2026-05-06 18:23 43.54345 17.67963 36046 ft 415 kts 320°
2026-05-06 18:23 43.58992 17.63258 36034 ft 412 kts 316°
2026-05-06 18:24 43.63419 17.58216 36036 ft 412 kts 315°
2026-05-06 18:24 43.67814 17.53108 36038 ft 412 kts 315°
2026-05-06 18:25 43.72249 17.48057 36051 ft 413 kts 316°
2026-05-06 18:25 43.76685 17.43069 36038 ft 413 kts 316°
2026-05-06 18:26 43.81147 17.38037 36036 ft 413 kts 315°
2026-05-06 18:26 43.85603 17.32991 36032 ft 413 kts 315°
2026-05-06 18:27 43.90020 17.27972 36028 ft 413 kts 315°
2026-05-06 18:27 43.94474 17.22909 36028 ft 413 kts 315°
2026-05-06 18:28 43.98919 17.17836 36022 ft 413 kts 315°
2026-05-06 18:28 44.03367 17.12749 36012 ft 414 kts 315°
2026-05-06 18:29 44.07789 17.07673 35998 ft 415 kts 314°
2026-05-06 18:29 44.12252 17.02541 36001 ft 416 kts 314°
2026-05-06 18:30 44.16719 16.97400 35983 ft 416 kts 314°
2026-05-06 18:30 44.21192 16.92257 35977 ft 417 kts 314°
2026-05-06 18:31 44.25635 16.87126 35969 ft 417 kts 314°
2026-05-06 18:31 44.30110 16.81943 35968 ft 418 kts 314°
2026-05-06 18:32 44.34780 16.76997 35966 ft 422 kts 318°
2026-05-06 18:32 44.39618 16.72329 35962 ft 423 kts 319°
2026-05-06 18:33 44.44430 16.67677 35959 ft 423 kts 318°
2026-05-06 18:33 44.49236 16.62919 35956 ft 422 kts 318°
2026-05-06 18:34 44.53984 16.58152 35954 ft 422 kts 317°
2026-05-06 18:34 44.58768 16.53337 35956 ft 423 kts 317°
2026-05-06 18:35 44.63570 16.48517 35953 ft 423 kts 318°
2026-05-06 18:35 44.68334 16.43740 35945 ft 423 kts 317°
2026-05-06 18:36 44.73124 16.38918 35939 ft 423 kts 317°
2026-05-06 18:36 44.77905 16.34082 35941 ft 424 kts 317°
2026-05-06 18:37 44.81894 16.30043 35938 ft 423 kts 317°
2026-05-06 18:37 44.87476 16.24376 35940 ft 424 kts 317°
2026-05-06 18:38 44.92276 16.19503 35940 ft 425 kts 318°
2026-05-06 18:38 44.97075 16.14615 35939 ft 425 kts 318°
2026-05-06 18:39 45.01876 16.09721 35937 ft 425 kts 318°
2026-05-06 18:40 45.09051 16.02375 35927 ft 426 kts 318°
2026-05-06 18:40 45.13869 15.97441 35924 ft 426 kts 318°
2026-05-06 18:41 45.18646 15.92533 35916 ft 427 kts 318°
2026-05-06 18:41 45.23468 15.87575 35913 ft 428 kts 319°
2026-05-06 18:42 45.28408 15.82779 35910 ft 430 kts 320°
2026-05-06 18:42 45.33370 15.78098 35908 ft 430 kts 321°
2026-05-06 18:43 45.38350 15.73334 35905 ft 430 kts 320°
2026-05-06 18:43 45.43305 15.68534 35906 ft 430 kts 320°
2026-05-06 18:44 45.48230 15.63747 35907 ft 431 kts 320°
2026-05-06 18:44 45.53190 15.58922 35906 ft 431 kts 320°
2026-05-06 18:45 45.58163 15.54078 35909 ft 432 kts 320°
2026-05-06 18:45 45.63103 15.49259 35910 ft 432 kts 320°
2026-05-06 18:46 45.68070 15.44405 35911 ft 432 kts 320°
2026-05-06 18:46 45.73022 15.39543 35912 ft 431 kts 320°
2026-05-06 18:47 45.77988 15.34677 35911 ft 432 kts 321°
2026-05-06 18:47 45.83031 15.30020 35913 ft 434 kts 323°
2026-05-06 18:48 45.88184 15.25473 35917 ft 435 kts 323°
2026-05-06 18:48 45.93337 15.20885 35918 ft 434 kts 322°
2026-05-06 18:49 45.98409 15.16278 35913 ft 434 kts 322°
2026-05-06 18:49 46.03506 15.11616 35905 ft 434 kts 322°
2026-05-06 18:50 46.08626 15.06949 35900 ft 435 kts 322°
2026-05-06 18:50 46.13750 15.02277 35897 ft 436 kts 322°
2026-05-06 18:51 46.18849 14.97616 35900 ft 436 kts 322°
2026-05-06 18:51 46.23980 14.92910 35896 ft 436 kts 322°
2026-05-06 18:52 46.29108 14.88189 35899 ft 436 kts 322°
2026-05-06 18:52 46.33369 14.84249 35900 ft 437 kts 322°
2026-05-06 18:53 46.39340 14.78726 35906 ft 437 kts 322°
2026-05-06 18:53 46.43614 14.74774 35900 ft 437 kts 322°
2026-05-06 18:54 46.48736 14.70026 35903 ft 437 kts 322°
2026-05-06 18:54 46.53874 14.65256 35893 ft 437 kts 322°
2026-05-06 18:55 46.58977 14.60497 35892 ft 437 kts 322°
2026-05-06 18:55 46.64098 14.55709 35890 ft 437 kts 322°
2026-05-06 18:56 46.69227 14.50914 35888 ft 437 kts 322°
2026-05-06 18:56 46.74316 14.46145 35883 ft 437 kts 322°
2026-05-06 18:57 46.79437 14.41327 35866 ft 437 kts 321°
2026-05-06 18:57 46.84553 14.36490 35881 ft 438 kts 322°
2026-05-06 18:58 46.89664 14.31664 35864 ft 438 kts 321°
2026-05-06 18:58 46.94793 14.26813 35880 ft 438 kts 321°
2026-05-06 18:59 46.99918 14.21955 35881 ft 439 kts 321°
2026-05-06 18:59 47.05013 14.17112 35868 ft 439 kts 321°
2026-05-06 19:00 47.10130 14.12233 35858 ft 438 kts 321°
2026-05-06 19:00 47.15244 14.07338 35853 ft 438 kts 321°
2026-05-06 19:01 47.20362 14.02427 35854 ft 439 kts 320°
2026-05-06 19:01 47.25475 13.97516 35855 ft 439 kts 320°
2026-05-06 19:02 47.30596 13.92596 35839 ft 439 kts 320°
2026-05-06 19:02 47.35682 13.87694 35836 ft 439 kts 320°
2026-05-06 19:03 47.40801 13.82745 35828 ft 440 kts 320°
2026-05-06 19:03 47.45929 13.77783 35826 ft 440 kts 320°
2026-05-06 19:04 47.51044 13.72814 35819 ft 440 kts 320°
2026-05-06 19:04 47.56160 13.67822 35815 ft 440 kts 320°
2026-05-06 19:05 47.61243 13.62853 35814 ft 439 kts 319°
2026-05-06 19:05 47.66360 13.57852 35813 ft 440 kts 319°
2026-05-06 19:06 47.71476 13.52841 35815 ft 440 kts 319°
2026-05-06 19:06 47.76565 13.47835 35818 ft 440 kts 319°
2026-05-06 19:07 47.81670 13.42793 35818 ft 440 kts 319°
2026-05-06 19:07 47.86779 13.37740 35813 ft 440 kts 319°
2026-05-06 19:08 47.91889 13.32694 35814 ft 440 kts 319°
2026-05-06 19:08 47.96994 13.27630 35814 ft 440 kts 319°
2026-05-06 19:09 48.02084 13.22559 35812 ft 440 kts 319°
2026-05-06 19:09 48.07150 13.17507 35812 ft 440 kts 319°
2026-05-06 19:10 48.12250 13.12400 35819 ft 441 kts 319°
2026-05-06 19:10 48.17343 13.07292 35827 ft 441 kts 319°
2026-05-06 19:11 48.22106 13.01694 35831 ft 424 kts 301°
2026-05-06 19:11 48.25342 12.94432 35829 ft 418 kts 296°
2026-05-06 19:12 48.28483 12.87087 35834 ft 419 kts 296°
2026-05-06 19:12 48.31619 12.79742 35835 ft 419 kts 296°
2026-05-06 19:13 48.34765 12.72360 35837 ft 419 kts 296°
2026-05-06 19:13 48.37917 12.64959 35837 ft 419 kts 296°
2026-05-06 19:14 48.41044 12.57581 35834 ft 420 kts 296°
2026-05-06 19:14 48.44178 12.50150 35835 ft 420 kts 296°
2026-05-06 19:15 48.47310 12.42711 35834 ft 420 kts 296°
2026-05-06 19:15 48.50442 12.35271 35834 ft 420 kts 296°
2026-05-06 19:16 48.53553 12.27860 35836 ft 420 kts 296°
2026-05-06 19:16 48.56673 12.20404 35837 ft 420 kts 295°
2026-05-06 19:17 48.59790 12.12922 35837 ft 420 kts 295°
2026-05-06 19:17 48.62885 12.05476 35836 ft 420 kts 295°
2026-05-06 19:18 48.65998 11.97956 35835 ft 420 kts 295°
2026-05-06 19:18 48.69127 11.90516 35827 ft 423 kts 297°
2026-05-06 19:19 48.72566 11.83243 35828 ft 426 kts 300°
2026-05-06 19:19 48.76114 11.76040 35822 ft 426 kts 300°
2026-05-06 19:20 48.79618 11.68777 35822 ft 426 kts 299°
2026-05-06 19:20 48.83077 11.61448 35819 ft 426 kts 298°
2026-05-06 19:21 48.86508 11.54113 35819 ft 426 kts 298°
2026-05-06 19:21 48.89953 11.46771 35819 ft 427 kts 299°
2026-05-06 19:22 48.93390 11.39465 35820 ft 427 kts 299°
2026-05-06 19:22 48.95117 11.35778 35666 ft 427 kts 298°
2026-05-06 19:22 48.96837 11.32093 35018 ft 428 kts 298°
2026-05-06 19:22 48.98556 11.28407 34634 ft 424 kts 298°
2026-05-06 19:23 49.00264 11.24743 34384 ft 422 kts 298°
2026-05-06 19:23 49.01951 11.21124 33970 ft 417 kts 297°
2026-05-06 19:23 49.03626 11.17519 33457 ft 414 kts 297°
2026-05-06 19:23 49.05260 11.13996 32958 ft 411 kts 297°
2026-05-06 19:24 49.06909 11.10435 32456 ft 409 kts 297°
2026-05-06 19:24 49.08540 11.06899 31959 ft 406 kts 297°
2026-05-06 19:24 49.10166 11.03383 31462 ft 403 kts 297°
2026-05-06 19:24 49.11777 10.99892 30973 ft 401 kts 297°
2026-05-06 19:25 49.13383 10.96411 30492 ft 398 kts 297°
2026-05-06 19:25 49.14955 10.92999 30029 ft 396 kts 297°
2026-05-06 19:25 49.16535 10.89563 29539 ft 393 kts 297°
2026-05-06 19:25 49.18105 10.86144 29088 ft 390 kts 298°
2026-05-06 19:26 49.19655 10.82755 28640 ft 387 kts 298°
2026-05-06 19:26 49.21193 10.79390 28195 ft 384 kts 298°
2026-05-06 19:26 49.22704 10.76086 27760 ft 380 kts 298°
2026-05-06 19:26 49.24210 10.72785 27335 ft 378 kts 298°
2026-05-06 19:27 49.25688 10.69538 26924 ft 374 kts 299°
2026-05-06 19:27 49.27170 10.66281 26505 ft 371 kts 299°
2026-05-06 19:27 49.28641 10.63048 26093 ft 367 kts 299°
2026-05-06 19:27 49.30098 10.59843 25669 ft 365 kts 299°
2026-05-06 19:28 49.31549 10.56648 25239 ft 363 kts 300°
2026-05-06 19:28 49.32988 10.53478 24812 ft 360 kts 300°
2026-05-06 19:28 49.34418 10.50321 24364 ft 359 kts 300°
2026-05-06 19:28 49.35818 10.47221 23912 ft 357 kts 300°
2026-05-06 19:29 49.37231 10.44094 23524 ft 358 kts 301°
2026-05-06 19:29 49.38669 10.40937 23150 ft 360 kts 301°
2026-05-06 19:29 49.40110 10.37788 22786 ft 359 kts 301°
2026-05-06 19:29 49.41547 10.34654 22408 ft 358 kts 301°
2026-05-06 19:30 49.42976 10.31530 22044 ft 356 kts 301°
2026-05-06 19:30 49.44395 10.28427 21679 ft 353 kts 301°
2026-05-06 19:30 49.45787 10.25373 21321 ft 351 kts 301°
2026-05-06 19:30 49.47186 10.22294 20965 ft 350 kts 301°
2026-05-06 19:31 49.48577 10.19227 20607 ft 347 kts 301°
2026-05-06 19:31 49.49954 10.16185 20248 ft 345 kts 301°
2026-05-06 19:31 49.52680 10.10150 19539 ft 341 kts 301°
2026-05-06 19:32 49.54031 10.07156 19189 ft 339 kts 301°
2026-05-06 19:32 49.55355 10.04219 18846 ft 337 kts 301°
2026-05-06 19:32 49.56706 10.01228 18494 ft 335 kts 301°
2026-05-06 19:32 49.58016 9.98323 18157 ft 333 kts 301°
2026-05-06 19:33 49.59337 9.95388 17816 ft 331 kts 302°
2026-05-06 19:33 49.60645 9.92476 17475 ft 330 kts 301°
2026-05-06 19:33 49.61952 9.89565 17135 ft 328 kts 302°
2026-05-06 19:33 49.63248 9.86679 16802 ft 326 kts 302°
2026-05-06 19:34 49.64541 9.83795 16467 ft 325 kts 302°
2026-05-06 19:34 49.65822 9.80938 16134 ft 323 kts 302°
2026-05-06 19:34 49.67096 9.78089 15799 ft 322 kts 302°
2026-05-06 19:34 49.68362 9.75253 15475 ft 320 kts 302°
2026-05-06 19:35 49.69624 9.72419 15134 ft 319 kts 302°
2026-05-06 19:35 49.70856 9.69636 14820 ft 317 kts 302°
2026-05-06 19:35 49.72098 9.66829 14497 ft 315 kts 302°
2026-05-06 19:35 49.73332 9.64045 14186 ft 314 kts 302°
2026-05-06 19:36 49.74566 9.61266 13867 ft 312 kts 302°
2026-05-06 19:36 49.75791 9.58503 13546 ft 311 kts 302°
2026-05-06 19:36 49.77014 9.55737 13231 ft 310 kts 302°
2026-05-06 19:36 49.78226 9.52998 12908 ft 308 kts 302°
2026-05-06 19:37 49.79030 9.51184 12702 ft 307 kts 303°
2026-05-06 19:37 49.80235 9.48465 12378 ft 306 kts 302°
2026-05-06 19:37 49.81437 9.45750 12071 ft 304 kts 303°
2026-05-06 19:37 49.82628 9.43050 11763 ft 303 kts 303°
2026-05-06 19:38 49.83814 9.40353 11448 ft 301 kts 302°
2026-05-06 19:38 49.84990 9.37672 11143 ft 300 kts 303°
2026-05-06 19:38 49.86084 9.34943 10873 ft 296 kts 294°
2026-05-06 19:38 49.86773 9.31958 10822 ft 294 kts 284°
2026-05-06 19:39 49.87338 9.28936 10827 ft 295 kts 285°
2026-05-06 19:39 49.87924 9.25884 10826 ft 295 kts 285°
2026-05-06 19:39 49.88510 9.22853 10511 ft 292 kts 285°
2026-05-06 19:39 49.89094 9.19837 10142 ft 291 kts 285°
2026-05-06 19:40 49.89674 9.16830 9811 ft 288 kts 285°
2026-05-06 19:40 49.90237 9.13890 9594 ft 281 kts 285°
2026-05-06 19:40 49.90787 9.10993 9280 ft 278 kts 285°
2026-05-06 19:40 49.91324 9.08158 8945 ft 276 kts 285°
2026-05-06 19:41 49.91866 9.05305 8599 ft 274 kts 285°
2026-05-06 19:41 49.92400 9.02494 8404 ft 266 kts 285°
2026-05-06 19:41 49.92904 8.99840 8264 ft 247 kts 285°
2026-05-06 19:41 49.93377 8.97336 7912 ft 239 kts 285°
2026-05-06 19:42 49.93842 8.94868 7604 ft 236 kts 285°
2026-05-06 19:42 49.94309 8.92436 7293 ft 234 kts 289°
2026-05-06 19:42 49.95119 8.90271 6975 ft 234 kts 309°
2026-05-06 19:42 49.96367 8.88651 6648 ft 236 kts 328°
2026-05-06 19:43 49.97891 8.87777 6328 ft 239 kts 347°
2026-05-06 19:43 49.99560 8.87767 5993 ft 243 kts
2026-05-06 19:43 50.01145 8.88679 5653 ft 246 kts 29°
2026-05-06 19:43 50.02426 8.90446 5362 ft 247 kts 52°
2026-05-06 19:44 50.03222 8.92788 5072 ft 246 kts 70°
2026-05-06 19:44 50.03839 8.95266 4734 ft 244 kts 59°
2026-05-06 19:44 50.04988 8.97133 4410 ft 238 kts 30°
2026-05-06 19:44 50.06398 8.98350 4083 ft 237 kts 25°
2026-05-06 19:45 50.07868 8.99489 3987 ft 236 kts 24°
2026-05-06 19:45 50.09406 9.00304 3997 ft 233 kts
2026-05-06 19:45 50.10963 8.99823 4004 ft 228 kts 329°
2026-05-06 19:45 50.12118 8.98192 3998 ft 225 kts 300°
2026-05-06 19:46 50.12577 8.95885 3997 ft 225 kts 270°
2026-05-06 19:46 50.12250 8.93502 3997 ft 227 kts 250°
2026-05-06 19:46 50.11703 8.91205 4005 ft 227 kts 250°
2026-05-06 19:46 50.11155 8.88892 4004 ft 227 kts 251°
2026-05-06 19:47 50.10610 8.86574 3966 ft 228 kts 251°
2026-05-06 19:47 50.10069 8.84278 3746 ft 227 kts 251°
2026-05-06 19:47 50.09527 8.81975 3465 ft 226 kts 251°
2026-05-06 19:47 50.08990 8.79699 3169 ft 220 kts 251°
2026-05-06 19:48 50.08472 8.77501 2882 ft 212 kts 251°
2026-05-06 19:48 50.07979 8.75418 2629 ft 198 kts 251°
2026-05-06 19:48 50.07515 8.73456 2360 ft 186 kts 252°
2026-05-06 19:48 50.07093 8.71674 2134 ft 166 kts 251°
2026-05-06 19:49 50.06717 8.70081 1918 ft 150 kts 251°
2026-05-06 19:49 50.06365 8.68596 1721 ft 143 kts 251°
2026-05-06 19:49 50.06023 8.67154 1529 ft 141 kts 251°
2026-05-06 19:49 50.05684 8.65725 1349 ft 140 kts 251°
2026-05-06 19:50 50.05351 8.64303 1091 ft 139 kts 252°
2026-05-06 19:50 50.05020 8.62894 894 ft 138 kts 251°
2026-05-06 19:50 50.04681 8.61496 791 ft 138 kts 252°
2026-05-06 19:50 50.04349 8.60086 639 ft 139 kts 250°
2026-05-06 19:51 50.04010 8.58688 422 ft 136 kts 251°
2026-05-06 19:51 50.03702 8.57373 358 ft 111 kts 250°
2026-05-06 19:51 50.03491 8.56504 360 ft 54 kts 249°
2026-05-06 19:51 50.03436 8.56113 357 ft 30 kts 272°
2026-05-06 19:52 50.03448 8.55962 345 ft 1 kts 280°
2026-05-06 19:52 50.03451 8.55934 353 ft 9 kts 280°
2026-05-06 19:52 50.03465 8.55800 351 ft 15 kts 279°
2026-05-06 19:52 50.03490 8.55713 349 ft 7 kts 320°
2026-05-06 19:53 50.03524 8.55703 346 ft 3 kts
2026-05-06 19:53 50.03530 8.55706 351 ft 0 kts 16°
2026-05-06 19:53 50.03554 8.55741 353 ft 14 kts 56°
2026-05-06 19:54 50.03587 8.55867 349 ft 12 kts 70°
2026-05-06 19:54 50.03618 8.55999 357 ft 12 kts 70°
2026-05-06 19:54 50.03643 8.56104 357 ft 9 kts 69°
2026-05-06 19:54 50.03677 8.56244 355 ft 23 kts 69°
2026-05-06 19:55 50.03733 8.56477 352 ft 24 kts 70°
2026-05-06 19:55 50.03782 8.56685 355 ft 21 kts 70°
2026-05-06 19:55 50.03832 8.56898 355 ft 21 kts 70°
2026-05-06 19:55 50.03885 8.57116 358 ft 21 kts 69°
2026-05-06 19:56 50.03936 8.57326 362 ft 20 kts 69°
2026-05-06 19:56 50.03984 8.57530 365 ft 20 kts 70°
2026-05-06 19:56 50.04034 8.57742 366 ft 21 kts 70°
2026-05-06 19:56 50.04088 8.57965 367 ft 23 kts 69°
2026-05-06 19:57 50.04145 8.58200 368 ft 24 kts 69°
2026-05-06 19:57 50.04205 8.58447 369 ft 24 kts 69°
2026-05-06 19:57 50.04260 8.58678 373 ft 22 kts 70°
2026-05-06 19:57 50.04313 8.58899 375 ft 21 kts 69°
2026-05-06 19:58 50.04361 8.59099 377 ft 20 kts 69°
2026-05-06 19:58 50.04405 8.59279 376 ft 9 kts 70°
2026-05-06 19:58 50.04426 8.59370 376 ft 8 kts 70°
2026-05-06 19:58 50.04432 8.59393 376 ft 5 kts 69°
2026-05-06 19:59 50.04488 8.59471 375 ft 13 kts
2026-05-06 19:59 50.04593 8.59465 373 ft 18 kts 357°
2026-05-06 19:59 50.04725 8.59427 372 ft 20 kts 339°
2026-05-06 19:59 50.04822 8.59365 370 ft 15 kts 323°
2026-05-06 20:00 50.04830 8.59202 372 ft 13 kts 249°
2026-05-06 20:00 50.04800 8.59074 368 ft 11 kts 250°
2026-05-06 20:00 50.04833 8.58996 366 ft 7 kts 339°
2026-05-06 20:00 50.04857 8.58983 365 ft 4 kts 342°
2026-05-06 20:01 50.04873 8.58974 365 ft 0 kts 340°